Regional Weather Roundup
Issued by NWS

Home | Current Version | Previous Version | Graphics & Text | Print | Product List | Glossary On
Versions: 1 2 3 4 5 6 7 8 9 10 11 12 13 14 15 16 17 18 19 20 21 22 23 24 25 26 27
000
ASUS45 KPSR 260610
RWRAZ

ARIZONA HOURLY REGIONAL WEATHER ROUNDUP
NATIONAL WEATHER SERVICE PHOENIX AZ
1100 PM MST SAT FEB 25 2017

NOTE: FAIR INDICATES FEW OR NO CLOUDS BELOW 12,000 FEET WITH NO
SIGNIFICANT WEATHER AND/OR OBSTRUCTIONS TO VISIBILITY.

AZZ001>003-036-260700-
NORTHWEST ARIZONA

CITY           SKY/WX    TMP DP  RH WIND       PRES   REMARKS
BULLHEAD CITY  CLOUDY    57  32  38 CALM      29.92F
KINGMAN        CLOUDY    44  12  27 SE8       29.94F
6HR MIN TEMP:  42; 6HR MAX TEMP:  53;

$$

AZZ004>008-015-016-018-260700-
NORTH CENTRAL ARIZONA

CITY           SKY/WX    TMP DP  RH WIND       PRES   REMARKS
GRAND CANYON   CLOUDY    31  16  54 SW10      29.94F WCI  22
6HR MIN TEMP:  31; 6HR MAX TEMP:  37;

WILLIAMS       CLOUDY    32  16  51 W6        29.95F WCI  26
PRESCOTT       CLOUDY    39  21  48 SW6       29.98S WCI  35
6HR MIN TEMP:  38; 6HR MAX TEMP:  49;

FLAGSTAFF      CLOUDY    27  20  75 W9        29.96S WCI  18
6HR MIN TEMP:  27; 6HR MAX TEMP:  37; 6HR PCP: TRACE;

PAYSON         CLOUDY    39  19  45 CALM      30.00S
PAGE           CLEAR     42   5  21 W9        29.91R
6HR MIN TEMP:  42; 6HR MAX TEMP:  47;

$$

AZZ009>014-017-260700-
NORTHEAST ARIZONA

CITY           SKY/WX    TMP DP  RH WIND       PRES   REMARKS
WINSLOW        CLOUDY    41  15  35 W7        29.95S
6HR MIN TEMP:  39; 6HR MAX TEMP:  53;

SAINT JOHNS    CLOUDY    41  10  28 W18       29.92S
6HR MIN TEMP:  41; 6HR MAX TEMP:  50;

WINDOW ROCK    CLOUDY    35  16  45 SW18G28   29.92R WCI  24
6HR MIN TEMP:  33; 6HR MAX TEMP:  42;

SHOW LOW       PTCLDY    32   9  37 S14       29.96F WCI  22
$$

AZZ023-260700-
GREATER PHOENIX AREA

CITY           SKY/WX    TMP DP  RH WIND       PRES   REMARKS
PHOENIX        CLOUDY    58  31  35 CALM      29.93F
6HR MIN TEMP:  57; 6HR MAX TEMP:  64;

BUCKEYE          N/A     50  41  71 E5        29.95S
LUKE AFB       MOCLDY    54  38  55 NW3       29.93F
6HR MIN TEMP:  54; 6HR MAX TEMP:  64;

DEER VALLEY    MOCLDY    53  32  44 CALM      29.94S
6HR MIN TEMP:  52; 6HR MAX TEMP:  62;

SCOTTSDALE     MOCLDY    56  27  32 CALM      29.96S
6HR MIN TEMP:  56; 6HR MAX TEMP:  63;

MESA-GATEWAY   PTCLDY    52  37  58 VRB3      29.96F
$$

AZZ027-028-260700-
SOUTHWEST MARICOPA COUNTY AND PINAL COUNTY

CITY           SKY/WX    TMP DP  RH WIND       PRES   REMARKS
CASA GRANDE    NOT AVBL
$$

AZZ503-504-507>509-260700-
SOUTHEAST ARIZONA

CITY           SKY/WX    TMP DP  RH WIND       PRES   REMARKS
TUCSON         CLOUDY    51  13  21 SE7       29.99F
6HR MIN TEMP:  51; 6HR MAX TEMP:  67;

DAVIS-MONTHAN  MOCLDY    49  19  30 SE6       29.98S
6HR MIN TEMP:  48; 6HR MAX TEMP:  65;

NOGALES        CLEAR     48  11  22 CALM      30.01S
6HR MIN TEMP:  42; 6HR MAX TEMP:  64;

SIERRA VISTA   CLEAR     48   6  18 N5        30.01F
6HR MIN TEMP:  46; 6HR MAX TEMP:  60;

DOUGLAS        PTCLDY    45   9  23 N5        30.01S
6HR MIN TEMP:  40; 6HR MAX TEMP:  65;

SAFFORD        PTCLDY    44  13  28 NW9       29.94F
6HR MIN TEMP:  43; 6HR MAX TEMP:  62; 6HR PCP: TRACE;

$$

AZZ020-021-025-026-031-260700-
SOUTHWEST ARIZONA

CITY           SKY/WX    TMP DP  RH WIND       PRES   REMARKS
YUMA           MOCLDY    59  37  44 SW5       29.93F
6HR MIN TEMP:  59; 6HR MAX TEMP:  69;

$$

CAZ031-033-041-043-047-048-061-260700-
SOUTHERN CALIFORNIA

CITY           SKY/WX    TMP DP  RH WIND       PRES   REMARKS
DOWNTOWN L.A.  MOCLDY    54  42  64 CALM      30.01F
6HR MIN TEMP:  54; 6HR MAX TEMP:  58;

L.A. AIRPORT   PTCLDY    53  42  66 W6        30.02S
6HR MIN TEMP:  53; 6HR MAX TEMP:  56;

SAN DIEGO      CLOUDY    56  41  57 W7        30.06F
6HR MIN TEMP:  56; 6HR MAX TEMP:  59;

BURBANK        MOCLDY    50  39  66 SW3       30.00F
6HR MIN TEMP:  50; 6HR MAX TEMP:  55;

ONTARIO        MOCLDY    49  43  80 W9        30.01S
6HR MIN TEMP:  49; 6HR MAX TEMP:  58;

RIVERSIDE      MOCLDY    50  45  83 NW3       30.02R
6HR MIN TEMP:  50; 6HR MAX TEMP:  58;

PALM SPRINGS   CLOUDY    61  28  28 NW9       29.93F
6HR MIN TEMP:  58; 6HR MAX TEMP:  66;

EL CENTRO NAS  MOCLDY    61  31  32 W16       29.93F
6HR MIN TEMP:  61; 6HR MAX TEMP:  70; 6HR PCP: TRACE;

IMPERIAL       CLOUDY    61  34  36 SW6       29.92F
6HR MIN TEMP:  60; 6HR MAX TEMP:  71;

BLYTHE         CLOUDY    58  35  42 SE3       29.92F
6HR MIN TEMP:  58; 6HR MAX TEMP:  67;

NEEDLES        CLOUDY    60  29  30 CALM      29.92S
6HR MIN TEMP:  60; 6HR MAX TEMP:  67;

$$

NVZ020-UTZ003-260700-
SOUTHERN NEVADA-UTAH

CITY           SKY/WX    TMP DP  RH WIND       PRES   REMARKS
LAS VEGAS      MOCLDY    46  20  35 N6        29.92S
6HR MIN TEMP:  46; 6HR MAX TEMP:  52;

SALT LAKE CITY PTCLDY    25  17  72 SE7       29.99S WCI  17
6HR MIN TEMP:  25; 6HR MAX TEMP:  33;

$$

NMZ009-TXZ055-260700-
NEW MEXICO-WEST TEXAS

CITY           SKY/WX    TMP DP  RH WIND       PRES   REMARKS
ALBUQUERQUE    PTCLDY    40   5  23 N3        29.90R
6HR MIN TEMP:  39; 6HR MAX TEMP:  53;

EL PASO        CLEAR     55   1  11 NW6       29.94R
6HR MIN TEMP:  54; 6HR MAX TEMP:  65;

$$


........................KEY........................
SKY/WX - SKY CONDITION/WEATHER
TMP    - TEMPERATURE IN FAHRENHEIT
DP     - DEW POINT IN FAHRENHEIT
RH     - RELATIVE HUMIDITY IN PERCENT
WIND   - DIRECTION AND SPEED IN MILES PER HOUR (MPH)
VRB    - VARIABLE WIND DIRECTION
PRES   - MEAN SEA LEVEL PRESSURE IN INCHES OF MERCURY
         F - FALLING PRESSURE   R - RISING PRESSURE
         S - STEADY PRESSURE
VSB    - VISIBILITY IN MILES
HX     - HEAT INDEX IN FAHRENHEIT
WCI    - WIND CHILL INDEX IN FAHRENHEIT
TC     - TEMPERATURE IN CELSIUS WHICH IS ALSO KNOWN AS
         TEMPERATURE IN CENTIGRADE
AFB    - AIR FORCE BASE
         LUKE AFB IS LUKE AIR FORCE BASE
         DAVIS-MONTHAN IS DAVIS-MONTHAN AIR FORCE BASE
NAS    - NAVAL AIR STATION
         EL CENTRO NAS IS EL CENTRO NAVAL AIR STATION
N/A    - NOT AVAILABLE





USA.gov is the U.S. government's official web portal to all federal, state and local government web resources and services.